| time (UTC) | temp F | wind direction | speed MPH | gust MPH | rain 1hr in | rain 24hr in | rain mn in | humidity % | barometer mb |
| 20260901012006 | 90 | 135 | 4.0 | 6.0 | 0.00 | 0.00 | 0.00 | 35 | 1010.7 |
| 20260901011508 | 91 | 135 | 5.0 | 7.0 | 0.00 | 0.00 | 0.00 | 35 | 1010.4 |
| 20260901011004 | 91 | 135 | 4.0 | 6.0 | 0.00 | 0.00 | 0.00 | 34 | 1010.4 |
| 20260901010007 | 92 | 157 | 4.0 | 5.0 | 0.00 | 0.00 | 0.00 | 33 | 1010.4 |
| 20260901005005 | 93 | 157 | 5.0 | 8.0 | 0.00 | 0.00 | 0.00 | 32 | 1010.4 |
| 20260831235005 | 95 | 157 | 10.0 | 14.0 | 0.00 | 0.00 | 0.00 | 30 | 1009.7 |
| 20260831234507 | 95 | 157 | 9.0 | 11.0 | 0.00 | 0.00 | 0.00 | 31 | 1009.0 |
| 20260831233504 | 96 | 112 | 11.0 | 15.0 | 0.00 | 0.00 | 0.00 | 31 | 1009.0 |
| 20260831232508 | 97 | 157 | 10.0 | 15.0 | 0.00 | 0.00 | 0.00 | 30 | 1009.0 |
| 20260831231506 | 97 | 157 | 13.0 | 18.0 | 0.00 | 0.00 | 0.00 | 29 | 1009.0 |
| 20260831225004 | 96 | 157 | 11.0 | 13.0 | 0.00 | 0.00 | 0.00 | 30 | 1009.4 |
| 20260831224506 | 97 | 157 | 12.0 | 16.0 | 0.00 | 0.00 | 0.00 | 30 | 1009.0 |
| 20260831224008 | 97 | 157 | 11.0 | 14.0 | 0.00 | 0.00 | 0.00 | 30 | 1009.0 |
| 20260831223503 | 97 | 180 | 10.0 | 14.0 | 0.00 | 0.00 | 0.00 | 29 | 1009.0 |
| 20260831222003 | 99 | 157 | 11.0 | 13.0 | 0.00 | 0.00 | 0.00 | 28 | 1008.7 |
| 20260831220503 | 98 | 202 | 12.0 | 15.0 | 0.00 | 0.00 | 0.00 | 29 | 1009.0 |
| 20260831215003 | 98 | 180 | 13.0 | 16.0 | 0.00 | 0.00 | 0.00 | 28 | 1009.0 |
| 20260831214506 | 98 | 112 | 8.0 | 10.0 | 0.00 | 0.00 | 0.00 | 28 | 1009.0 |
| 20260831212006 | 97 | 135 | 10.0 | 15.0 | 0.00 | 0.00 | 0.00 | 30 | 1009.7 |
| 20260831211502 | 98 | 157 | 13.0 | 18.0 | 0.00 | 0.00 | 0.00 | 29 | 1009.0 |
| 20260831210003 | 98 | 157 | 6.0 | 8.0 | 0.00 | 0.00 | 0.00 | 29 | 1009.4 |
| 20260831205506 | 97 | 112 | 8.0 | 11.0 | 0.00 | 0.00 | 0.00 | 30 | 1009.7 |
| 20260831204005 | 99 | 180 | 11.0 | 13.0 | 0.00 | 0.00 | 0.00 | 27 | 1009.7 |
| 20260831201502 | 98 | 157 | 9.0 | 12.0 | 0.00 | 0.00 | 0.00 | 28 | 1010.0 |
| 20260831200008 | 96 | 90 | 7.0 | 9.0 | 0.00 | 0.00 | 0.00 | 31 | 1010.4 |
| 20260831195504 | 96 | 135 | 15.0 | 19.0 | 0.00 | 0.00 | 0.00 | 32 | 1011.0 |
| 20260831193505 | 95 | 90 | 13.0 | 17.0 | 0.00 | 0.00 | 0.00 | 33 | 1011.0 |
| 20260831193007 | 97 | 180 | 14.0 | 20.0 | 0.00 | 0.00 | 0.00 | 32 | 1011.0 |
| 20260831190504 | 95 | 112 | 8.0 | 14.0 | 0.00 | 0.00 | 0.00 | 31 | 1011.0 |
| 20260831190006 | 96 | 135 | 11.0 | 18.0 | 0.00 | 0.00 | 0.00 | 32 | 1011.0 |
| 20260831185502 | 96 | 135 | 12.0 | 17.0 | 0.00 | 0.00 | 0.00 | 32 | 1011.4 |
| 20260831185004 | 95 | 180 | 9.0 | 12.0 | 0.00 | 0.00 | 0.00 | 33 | 1011.4 |
| 20260831183503 | 96 | 157 | 6.0 | 7.0 | 0.00 | 0.00 | 0.00 | 34 | 1011.7 |
| 20260831183005 | 95 | 157 | 6.0 | 7.0 | 0.00 | 0.00 | 0.00 | 32 | 1011.7 |
| 20260831182003 | 95 | 180 | 14.0 | 19.0 | 0.00 | 0.00 | 0.00 | 35 | 1012.1 |
| 20260831181505 | 95 | 180 | 9.0 | 14.0 | 0.00 | 0.00 | 0.00 | 35 | 1012.1 |
| 20260831181006 | 95 | 135 | 10.0 | 14.0 | 0.00 | 0.00 | 0.00 | 33 | 1012.1 |
| 20260831180502 | 95 | 157 | 12.0 | 16.0 | 0.00 | 0.00 | 0.00 | 35 | 1012.4 |
| 20260831174504 | 95 | 180 | 16.0 | 19.0 | 0.00 | 0.00 | 0.00 | 34 | 1012.4 |
| 20260831171503 | 94 | 202 | 18.0 | 23.0 | 0.00 | 0.00 | 0.00 | 33 | 1013.1 |
| 20260831165505 | 93 | 202 | 13.0 | 15.0 | 0.00 | 0.00 | 0.00 | 35 | 1013.1 |
| 20260831164508 | 93 | 180 | 12.0 | 13.0 | 0.00 | 0.00 | 0.00 | 37 | 1013.1 |
| 20260831163504 | 92 | 180 | 13.0 | 16.0 | 0.00 | 0.00 | 0.00 | 39 | 1013.4 |
| 20260831162508 | 92 | 180 | 13.0 | 17.0 | 0.00 | 0.00 | 0.00 | 39 | 1013.4 |
| 20260831162003 | 92 | 157 | 14.0 | 17.0 | 0.00 | 0.00 | 0.00 | 40 | 1013.4 |
| 20260831161505 | 91 | 180 | 15.0 | 18.0 | 0.00 | 0.00 | 0.00 | 39 | 1013.4 |
| 20260831161007 | 92 | 180 | 15.0 | 19.0 | 0.00 | 0.00 | 0.00 | 39 | 1013.4 |
| 20260831160503 | 91 | 202 | 12.0 | 16.0 | 0.00 | 0.00 | 0.00 | 39 | 1013.8 |
| 20260831155002 | 91 | 180 | 11.0 | 13.0 | 0.00 | 0.00 | 0.00 | 40 | 1013.8 |
| 20260831154006 | 90 | 202 | 15.0 | 18.0 | 0.00 | 0.00 | 0.00 | 40 | 1013.8 |
| 20260831153507 | 90 | 202 | 12.0 | 14.0 | 0.00 | 0.00 | 0.00 | 42 | 1013.8 |
| 20260831153004 | 90 | 202 | 10.0 | 13.0 | 0.00 | 0.00 | 0.00 | 42 | 1013.8 |
| 20260831152505 | 90 | 202 | 11.0 | 14.0 | 0.00 | 0.00 | 0.00 | 44 | 1013.8 |
| 20260831151005 | 89 | 180 | 11.0 | 14.0 | 0.00 | 0.00 | 0.00 | 46 | 1014.1 |
| 20260831150507 | 88 | 202 | 8.0 | 12.0 | 0.00 | 0.00 | 0.00 | 48 | 1014.1 |
| 20260831150003 | 88 | 225 | 10.0 | 13.0 | 0.00 | 0.00 | 0.00 | 49 | 1014.1 |
| 20260831145505 | 88 | 202 | 12.0 | 15.0 | 0.00 | 0.00 | 0.00 | 47 | 1014.4 |
| 20260831140005 | 85 | 180 | 10.0 | 13.0 | 0.00 | 0.00 | 0.00 | 62 | 1014.8 |
| 20260831135003 | 84 | 180 | 9.0 | 13.0 | 0.00 | 0.00 | 0.00 | 64 | 1014.4 |
| 20260831134007 | 83 | 202 | 6.0 | 7.0 | 0.00 | 0.00 | 0.00 | 66 | 1014.4 |
| 20260831132504 | 81 | 180 | 4.0 | 5.0 | 0.00 | 0.00 | 0.00 | 70 | 1015.1 |
| 20260831130007 | 79 | 135 | 4.0 | 5.0 | 0.00 | 0.00 | 0.00 | 72 | 1015.1 |
| 20260831124506 | 79 | 157 | 3.0 | 4.0 | 0.00 | 0.00 | 0.00 | 74 | 1015.8 |
| 20260831123555 | 78 | 157 | 3.0 | 5.0 | 0.00 | 0.00 | 0.00 | 74 | 1015.4 |
| 20260831122008 | 78 | 157 | 4.0 | 4.0 | 0.00 | 0.00 | 0.00 | 74 | 1015.4 |
| 20260831121504 | 78 | 135 | 4.0 | 5.0 | 0.00 | 0.00 | 0.00 | 73 | 1015.1 |
| 20260831120507 | 78 | 157 | 5.0 | 6.0 | 0.00 | 0.00 | 0.00 | 73 | 1015.1 |
| 20260831120003 | 78 | 180 | 6.0 | 7.0 | 0.00 | 0.00 | 0.00 | 72 | 1015.1 |
| 20260831114503 | 79 | 202 | 2.0 | 3.0 | 0.00 | 0.00 | 0.00 | 70 | 1014.4 |
| 20260831113507 | 79 | 202 | 6.0 | 7.0 | 0.00 | 0.00 | 0.00 | 69 | 1014.4 |
| 20260831112504 | 79 | 202 | 8.0 | 9.0 | 0.00 | 0.00 | 0.00 | 69 | 1014.4 |
| 20260831111003 | 80 | 180 | 7.0 | 9.0 | 0.00 | 0.00 | 0.00 | 68 | 1014.4 |
| 20260831110504 | 80 | 202 | 8.0 | 11.0 | 0.00 | 0.00 | 0.00 | 68 | 1014.4 |
| 20260831105508 | 80 | 180 | 10.0 | 12.0 | 0.00 | 0.00 | 0.00 | 67 | 1014.1 |
| 20260831104506 | 80 | 202 | 8.0 | 10.0 | 0.00 | 0.00 | 0.00 | 67 | 1014.1 |
| 20260831104008 | 80 | 180 | 8.0 | 10.0 | 0.00 | 0.00 | 0.00 | 66 | 1014.1 |
| 20260831103503 | 80 | 180 | 8.0 | 9.0 | 0.00 | 0.00 | 0.00 | 66 | 1014.1 |
| 20260831103005 | 81 | 180 | 9.0 | 10.0 | 0.00 | 0.00 | 0.00 | 64 | 1014.1 |
| 20260831101505 | 81 | 202 | 8.0 | 10.0 | 0.00 | 0.00 | 0.00 | 64 | 1013.8 |
| 20260831100503 | 81 | 202 | 9.0 | 11.0 | 0.00 | 0.00 | 0.00 | 63 | 1013.8 |
| 20260831094006 | 82 | 180 | 10.0 | 13.0 | 0.00 | 0.00 | 0.00 | 61 | 1013.8 |
| 20260831092007 | 82 | 202 | 10.0 | 12.0 | 0.00 | 0.00 | 0.00 | 61 | 1013.4 |
| 20260831091504 | 82 | 202 | 9.0 | 11.0 | 0.00 | 0.00 | 0.00 | 62 | 1013.4 |
| 20260831090003 | 82 | 202 | 10.0 | 12.0 | 0.00 | 0.00 | 0.00 | 61 | 1013.1 |
| 20260831085505 | 82 | 202 | 11.0 | 12.0 | 0.00 | 0.00 | 0.00 | 61 | 1013.1 |
| 20260831085007 | 82 | 202 | 11.0 | 13.0 | 0.00 | 0.00 | 0.00 | 61 | 1013.1 |
| 20260831084508 | 82 | 180 | 10.0 | 12.0 | 0.00 | 0.00 | 0.00 | 60 | 1013.1 |
| 20260831083002 | 82 | 180 | 12.0 | 14.0 | 0.00 | 0.00 | 0.00 | 57 | 1013.1 |
| 20260831082504 | 82 | 202 | 13.0 | 15.0 | 0.00 | 0.00 | 0.00 | 56 | 1013.4 |
| 20260831081507 | 82 | 180 | 10.0 | 12.0 | 0.00 | 0.00 | 0.00 | 55 | 1013.4 |
| 20260831080007 | 83 | 202 | 10.0 | 13.0 | 0.00 | 0.00 | 0.00 | 53 | 1013.1 |
| 20260831073505 | 82 | 180 | 10.0 | 12.0 | 0.00 | 0.00 | 0.00 | 55 | 1013.1 |
| 20260831073007 | 82 | 180 | 9.0 | 11.0 | 0.00 | 0.00 | 0.00 | 55 | 1013.1 |
| 20260831070504 | 81 | 157 | 7.0 | 8.0 | 0.00 | 0.00 | 0.00 | 56 | 1013.4 |
| 20260831065005 | 81 | 157 | 5.0 | 7.0 | 0.00 | 0.00 | 0.00 | 56 | 1013.1 |
| 20260831064507 | 81 | 135 | 5.0 | 6.0 | 0.00 | 0.00 | 0.00 | 56 | 1013.4 |
| 20260831062503 | 81 | 112 | 7.0 | 8.0 | 0.00 | 0.00 | 0.00 | 56 | 1013.4 |
| 20260831054506 | 83 | 112 | 8.0 | 10.0 | 0.00 | 0.00 | 0.00 | 54 | 1013.1 |
| 20260831054009 | 83 | 112 | 7.0 | 9.0 | 0.00 | 0.00 | 0.00 | 52 | 1013.1 |
| 20260831053505 | 83 | 135 | 7.0 | 8.0 | 0.00 | 0.00 | 0.00 | 52 | 1013.1 |
| 20260831053006 | 83 | 135 | 6.0 | 7.0 | 0.00 | 0.00 | 0.00 | 52 | 1013.1 |
| 20260831051506 | 83 | 135 | 4.0 | 5.0 | 0.00 | 0.00 | 0.00 | 51 | 1013.1 |
| 20260831051008 | 83 | 135 | 4.0 | 5.0 | 0.00 | 0.00 | 0.00 | 51 | 1013.1 |
| 20260831050504 | 83 | 135 | 5.0 | 6.0 | 0.00 | 0.00 | 0.00 | 51 | 1012.7 |
| 20260831045508 | 84 | 157 | 4.0 | 5.0 | 0.00 | 0.00 | 0.00 | 50 | 1012.7 |
| 20260831045003 | 84 | 135 | 5.0 | 5.0 | 0.00 | 0.00 | 0.00 | 48 | 1012.7 |
| 20260831043503 | 85 | 157 | 4.0 | 5.0 | 0.00 | 0.00 | 0.00 | 47 | 1012.7 |
| 20260831043005 | 85 | 157 | 4.0 | 5.0 | 0.00 | 0.00 | 0.00 | 46 | 1012.7 |
| 20260831042003 | 85 | 157 | 4.0 | 5.0 | 0.00 | 0.00 | 0.00 | 46 | 1012.4 |
| 20260831040503 | 86 | 157 | 5.0 | 5.0 | 0.00 | 0.00 | 0.00 | 45 | 1012.4 |
| 20260831034006 | 87 | 157 | 4.0 | 5.0 | 0.00 | 0.00 | 0.00 | 42 | 1012.1 |
| 20260831033508 | 87 | 157 | 5.0 | 6.0 | 0.00 | 0.00 | 0.00 | 42 | 1011.7 |
| 20260831033049 | 87 | 157 | 4.0 | 5.0 | 0.00 | 0.00 | 0.00 | 42 | 1011.7 |
| 20260831032505 | 87 | 135 | 4.0 | 7.0 | 0.00 | 0.00 | 0.00 | 42 | 1011.7 |
| 20260831031503 | 87 | 135 | 4.0 | 6.0 | 0.00 | 0.00 | 0.00 | 41 | 1011.7 |
| 20260831031005 | 88 | 135 | 5.0 | 6.0 | 0.00 | 0.00 | 0.00 | 40 | 1011.7 |
| 20260831030507 | 88 | 157 | 4.0 | 7.0 | 0.00 | 0.00 | 0.00 | 40 | 1011.4 |
| 20260831030008 | 88 | 135 | 4.0 | 6.0 | 0.00 | 0.00 | 0.00 | 40 | 1011.4 |
| 20260831025006 | 89 | 112 | 6.0 | 8.0 | 0.00 | 0.00 | 0.00 | 39 | 1011.4 |
| 20260831024004 | 88 | 112 | 5.0 | 7.0 | 0.00 | 0.00 | 0.00 | 39 | 1011.4 |
| 20260831022503 | 88 | 157 | 5.0 | 6.0 | 0.00 | 0.00 | 0.00 | 39 | 1011.0 |
| 20260831021004 | 89 | 157 | 4.0 | 5.0 | 0.00 | 0.00 | 0.00 | 37 | 1011.0 |
| 20260831020506 | 89 | 157 | 4.0 | 5.0 | 0.00 | 0.00 | 0.00 | 37 | 1010.7 |